Wind_Speed
10 8 7 7 6 5 4 3 3 2 1 0 0 1 2 3 4 5 7 8 8 9 10 10 11 11 11 11 11 10 10 9 9 8 8 7 6 6 6 6 6 6 6
9 9 7 7 6 6 5 4 4 3 2 1 1 1 2 3 4 5 7 7 8 9 9 10 11 11 11 11 11 10 10 10 10 9 8 8 7 7 7 7 7 7 7
8 8 8 7 7 6 6 5 4 3 2 2 1 2 2 3 4 5 7 7 8 9 10 10 11 11 11 11 11 11 11 11 10 10 10 9 9 9 8 8 8 8 7
9 9 9 8 8 7 6 6 5 4 3 2 2 2 3 4 5 6 7 7 8 9 10 10 10 10 11 11 11 11 11 11 11 10 10 10 10 9 9 9 9 8 8
9 9 8 9 8 8 7 7 6 5 4 3 3 3 3 4 5 6 7 8 8 9 10 10 11 11 11 11 11 11 11 12 11 11 11 11 11 10 10 10 10 9 9
9 8 9 9 9 8 8 7 6 6 5 4 4 4 4 5 6 6 7 8 9 10 10 10 11 11 11 11 12 12 12 12 12 12 12 12 12 12 12 11 11 10 10
9 9 9 9 9 8 8 8 8 7 6 6 5 5 6 6 7 7 8 9 9 10 10 11 11 11 11 12 12 12 13 13 13 13 13 13 13 14 13 13 12 11 11
9 10 10 10 10 9 9 9 9 8 7 7 7 7 7 7 8 8 9 9 10 11 11 11 11 11 12 12 13 13 13 14 14 14 14 14 14 15 15 14 14 12 12
10 10 9 10 10 10 9 9 9 9 8 8 8 8 8 8 9 9 10 10 11 12 12 12 12 12 12 13 13 14 14 15 15 15 15 15 15 15 15 15 13 13 12
10 9 8 9 10 10 10 10 10 10 10 10 10 10 10 10 10 10 11 12 12 12 13 13 13 13 13 14 14 15 15 16 16 16 16 16 16 15 15 14 13 13 13
10 10 10 10 10 11 11 11 11 11 11 11 12 12 12 11 11 12 12 13 13 13 13 14 14 14 14 15 15 16 16 17 17 17 17 17 17 17 17 15 14 14 14
10 10 11 11 11 11 12 12 12 12 12 12 13 13 13 13 13 13 14 14 14 14 15 15 15 15 16 16 16 17 17 18 18 18 18 18 18 18 17 16 16 15 15
11 11 12 12 12 12 13 13 13 13 13 13 14 14 15 15 15 15 15 15 15 16 16 16 16 16 17 17 18 18 18 19 19 19 19 19 19 19 18 17 16 16 16
11 12 13 13 13 14 14 14 13 13 14 14 15 16 16 16 16 16 17 17 17 17 18 17 17 18 18 18 19 19 20 20 20 20 20 20 20 20 19 18 18 18 18
12 12 13 14 14 15 15 15 15 15 15 15 16 16 17 17 18 18 18 18 19 19 19 19 19 19 20 20 20 21 21 22 22 21 21 21 21 21 21 21 20 20 20
12 13 14 14 15 15 15 15 16 16 16 16 17 17 18 18 18 19 19 19 20 20 21 21 21 21 22 22 22 23 23 23 23 23 24 23 23 23 23 23 23 22 22
13 13 14 15 15 16 16 16 17 17 17 18 18 19 19 19 19 19 20 21 21 22 22 22 23 23 24 24 25 25 25 25 25 26 26 26 26 27 26 26 26 26 25
14 15 16 16 17 17 18 18 18 19 19 19 20 20 20 20 20 20 21 22 22 23 24 25 25 25 26 26 26 27 27 27 28 28 29 29 29 30 29 29 28 28 28
16 17 17 17 18 18 19 19 19 20 21 21 21 21 21 21 21 22 23 23 24 25 26 26 27 27 28 28 28 29 30 30 30 30 30 30 31 31 31 31 31 31 31
18 18 19 19 19 19 19 20 21 21 22 22 22 22 23 23 23 24 25 25 26 27 27 28 28 29 29 30 31 31 32 32 32 32 32 32 33 33 33 33 33 33 33
19 19 19 19 20 20 20 21 21 22 23 23 24 24 24 25 25 26 27 27 28 29 29 30 30 31 31 32 33 33 34 34 34 34 34 35 35 35 35 36 36 36 36
21 21 21 21 21 21 21 22 23 23 24 24 24 24 25 26 27 28 29 29 30 30 31 32 32 33 34 34 35 36 36 36 36 37 37 37 38 38 38 38 39 38 38
23 23 23 23 23 23 23 24 24 25 26 26 26 26 27 28 29 29 30 31 32 32 33 33 34 35 36 37 37 38 38 38 39 39 40 41 41 41 41 41 41 40 40
24 24 25 25 25 25 26 26 27 27 28 28 28 28 29 30 31 32 32 33 34 35 35 36 37 37 38 39 39 40 40 41 42 42 43 43 43 43 42 42 42 43 43
26 26 26 27 27 28 28 28 29 30 30 30 30 31 31 32 33 34 34 35 36 37 38 39 39 39 40 41 42 42 43 44 44 44 44 44 45 45 45 45 45 46 46
27 27 27 27 28 29 29 30 30 31 31 32 32 33 33 34 35 35 36 37 38 39 40 41 41 42 42 43 44 45 46 46 47 47 47 47 48 48 48 49 49 49 49
Wind_Direction
190 189 194 194 194 197 204 206 202 207 197 207 53 39 28 22 19 12 6 4 5 4 3 4 5 4 5 4 3 2 2 1 2 1 356 349 339 334 330 322 314 310 303
196 197 200 199 203 207 210 206 205 208 204 225 273 344 0 3 4 359 356 358 1 1 0 1 2 2 2 2 2 1 0 359 358 356 353 349 340 332 327 320 312 309 302
203 199 202 207 211 214 213 206 206 208 214 232 269 318 334 344 347 348 352 356 358 357 357 357 358 358 358 0 2 1 359 356 353 349 346 343 339 336 333 325 316 309 304
203 201 204 211 214 214 210 209 211 209 212 235 268 302 328 332 336 341 344 349 351 351 351 353 354 354 353 355 357 358 356 352 349 345 342 336 333 334 333 327 318 311 304
197 200 205 208 211 212 211 214 218 219 224 244 265 289 311 315 322 328 333 338 342 345 346 347 349 349 349 350 349 349 349 348 345 342 338 330 326 325 324 322 315 310 304
198 205 207 208 211 212 214 219 225 227 234 251 268 285 297 300 308 317 324 329 332 336 339 341 342 342 343 343 342 341 341 342 340 335 332 328 324 321 317 314 309 305 301
205 210 211 213 216 218 221 226 232 238 246 256 267 280 288 294 302 308 315 320 325 329 332 335 336 337 339 340 339 338 337 337 336 332 329 326 323 322 316 309 304 300 296
214 214 211 216 220 223 229 232 238 243 250 257 266 276 284 293 299 303 308 313 318 323 326 328 330 332 334 336 336 334 333 332 331 330 326 322 319 318 315 309 303 297 294
213 211 213 221 227 229 233 236 241 246 252 258 264 272 279 287 294 300 303 307 312 317 320 323 325 327 328 330 330 330 330 329 328 326 324 322 319 318 317 312 303 297 294
214 218 223 227 234 238 240 244 249 253 257 261 267 272 276 282 288 294 299 303 307 311 315 317 319 321 321 322 324 326 327 327 327 325 323 320 319 317 316 315 308 300 295
217 223 229 235 240 244 247 250 254 257 262 265 269 272 275 278 280 286 293 299 302 306 310 311 313 315 316 317 319 321 322 323 323 323 322 320 318 318 313 310 305 298 294
226 232 235 242 246 248 251 253 256 259 263 267 269 270 272 273 277 283 288 294 299 302 305 306 308 309 310 312 315 317 318 318 318 319 319 319 316 315 314 309 306 301 294
233 236 239 244 250 251 253 255 258 262 265 268 268 269 270 273 277 281 286 291 296 300 301 302 304 305 307 309 310 312 313 314 314 315 315 315 314 311 311 308 305 303 298
241 243 246 250 254 254 255 258 260 265 268 269 270 270 271 274 277 280 285 288 293 296 298 299 300 302 305 306 307 309 310 311 312 312 311 311 310 308 306 305 303 301 299
253 254 253 254 256 257 259 260 262 264 266 268 270 271 272 275 277 281 284 287 291 293 296 297 298 300 303 305 306 308 308 308 308 308 309 309 309 307 304 303 302 300 296
254 254 255 255 257 258 260 260 261 263 264 268 271 273 273 274 276 280 284 286 288 291 293 294 296 298 301 303 305 305 305 305 304 304 305 305 306 305 302 301 301 298 294
258 256 257 258 259 260 260 260 261 262 265 268 271 273 274 274 276 280 284 286 288 290 292 293 295 297 298 301 303 302 302 303 302 302 301 300 301 301 300 300 299 296 292
261 260 261 263 263 262 261 261 262 264 266 269 271 274 275 276 277 280 283 286 288 290 291 292 294 296 297 299 300 300 300 300 300 299 300 300 299 299 299 299 298 296 293
262 263 263 263 263 263 263 263 264 266 268 270 272 274 276 277 278 280 283 286 288 290 292 293 294 296 297 298 299 299 298 298 298 298 299 299 299 299 299 298 296 294 292
263 263 262 263 264 265 265 266 267 268 270 272 272 273 274 277 279 280 283 285 287 290 292 293 294 295 296 297 297 297 297 296 296 297 298 298 298 298 298 298 296 294 291
264 263 262 263 265 265 266 268 268 269 271 272 273 274 275 277 278 280 283 285 286 288 291 293 294 295 296 297 297 296 295 295 295 296 297 297 297 297 297 297 295 294 291
266 265 264 265 266 266 267 268 268 270 271 273 274 276 277 278 279 282 284 286 287 289 290 292 293 294 295 296 295 295 294 294 295 296 296 296 296 296 296 296 295 293 292
266 265 266 266 267 268 269 269 270 271 273 274 276 277 279 280 280 282 285 287 289 290 291 292 293 293 294 295 295 294 294 294 294 295 295 295 296 296 296 295 294 293 292
266 267 267 268 269 270 271 272 273 274 275 276 277 278 280 281 282 283 285 287 289 290 291 292 293 293 293 294 294 293 293 293 293 294 295 295 295 295 295 294 293 292 292
268 268 269 269 270 271 273 274 274 275 276 277 278 279 280 281 283 284 286 287 288 290 291 292 292 292 293 293 293 292 292 292 293 294 294 294 295 295 294 294 293 293 292
268 268 269 270 271 272 273 274 275 276 277 277 278 279 280 282 283 285 286 287 289 290 292 292 293 293 293 293 292 292 292 292 293 293 294 294 294 294 294 293 293 292 292
Height
5891 5892 5893 5894 5895 5896 5897 5897 5898 5898 5898 5898 5898 5897 5897 5896 5895 5894 5892 5891 5889 5887 5885 5883 5881 5878 5876 5874 5872 5869 5868 5866 5864 5863 5861 5860 5859 5858 5856 5855 5854 5854 5853
5889 5891 5892 5894 5894 5895 5896 5897 5897 5897 5897 5897 5897 5897 5896 5896 5895 5893 5892 5890 5889 5887 5885 5882 5880 5878 5876 5874 5872 5869 5867 5865 5864 5863 5861 5860 5859 5857 5856 5854 5853 5852 5851
5888 5889 5891 5892 5893 5894 5895 5895 5896 5896 5897 5897 5896 5896 5895 5895 5894 5893 5892 5890 5888 5886 5884 5882 5880 5878 5876 5874 5871 5869 5867 5865 5863 5862 5860 5859 5857 5856 5854 5853 5852 5850 5850
5887 5888 5890 5891 5892 5893 5894 5894 5895 5895 5896 5896 5896 5895 5895 5894 5893 5892 5891 5889 5888 5886 5884 5882 5879 5877 5875 5873 5871 5869 5867 5865 5863 5861 5859 5858 5856 5854 5853 5851 5850 5848 5847
5885 5886 5888 5889 5890 5891 5892 5893 5894 5894 5894 5894 5894 5894 5893 5893 5892 5891 5890 5888 5887 5885 5883 5881 5879 5877 5874 5872 5870 5868 5866 5864 5862 5860 5858 5856 5854 5852 5851 5849 5847 5846 5845
5884 5885 5886 5888 5889 5890 5891 5892 5892 5893 5893 5893 5893 5893 5892 5891 5891 5890 5888 5887 5885 5884 5882 5880 5878 5875 5873 5871 5869 5867 5865 5863 5860 5858 5856 5854 5852 5850 5848 5847 5845 5843 5842
5882 5883 5884 5886 5887 5888 5889 5890 5890 5891 5891 5891 5891 5891 5890 5889 5889 5888 5887 5885 5884 5882 5880 5878 5876 5874 5872 5870 5868 5866 5863 5861 5858 5856 5854 5851 5849 5847 5845 5843 5841 5840 5839
5880 5882 5883 5884 5885 5886 5887 5888 5888 5889 5889 5889 5889 5889 5888 5887 5887 5886 5885 5883 5882 5880 5878 5877 5875 5873 5871 5868 5866 5864 5861 5859 5856 5853 5851 5848 5846 5843 5840 5838 5836 5835 5835
5879 5880 5881 5882 5883 5884 5885 5885 5886 5886 5886 5886 5886 5886 5886 5885 5884 5883 5882 5881 5880 5878 5876 5874 5872 5870 5868 5866 5864 5862 5859 5856 5853 5851 5848 5845 5842 5839 5836 5833 5831 5831 5830
5877 5877 5878 5879 5880 5881 5882 5883 5883 5883 5883 5883 5883 5883 5883 5882 5881 5881 5880 5878 5877 5875 5874 5872 5870 5868 5866 5864 5861 5859 5856 5853 5850 5848 5845 5841 5838 5835 5832 5829 5827 5826 5826
5874 5875 5876 5877 5878 5879 5879 5880 5880 5880 5880 5880 5880 5880 5879 5879 5878 5878 5877 5875 5874 5872 5871 5869 5867 5865 5863 5861 5858 5856 5853 5850 5847 5844 5841 5838 5835 5831 5828 5826 5824 5822 5821
5872 5873 5873 5874 5875 5876 5876 5876 5877 5877 5877 5877 5877 5876 5876 5875 5875 5874 5873 5872 5871 5869 5867 5865 5864 5862 5859 5857 5855 5852 5850 5847 5843 5840 5837 5834 5831 5827 5824 5822 5819 5818 5816
5869 5870 5871 5871 5872 5872 5872 5873 5873 5873 5873 5873 5873 5872 5872 5872 5871 5870 5869 5868 5867 5865 5863 5862 5860 5858 5855 5853 5851 5848 5845 5842 5839 5836 5833 5830 5827 5823 5820 5817 5815 5813 5812
5866 5867 5867 5868 5868 5869 5869 5869 5869 5869 5869 5869 5869 5868 5868 5867 5867 5866 5865 5864 5862 5861 5859 5857 5855 5853 5851 5849 5846 5843 5841 5838 5835 5831 5828 5824 5821 5818 5816 5813 5811 5809 5807
5863 5863 5863 5864 5865 5865 5865 5865 5865 5865 5865 5865 5864 5864 5863 5863 5862 5861 5860 5859 5858 5856 5854 5852 5850 5848 5846 5844 5841 5838 5835 5832 5829 5826 5822 5819 5816 5813 5810 5808 5806 5804 5802
5859 5859 5860 5860 5860 5861 5861 5861 5861 5861 5860 5860 5860 5859 5858 5858 5857 5856 5855 5854 5852 5851 5849 5847 5845 5843 5841 5838 5835 5833 5830 5827 5824 5820 5817 5813 5810 5808 5805 5802 5800 5798 5796
5855 5855 5855 5856 5856 5856 5856 5856 5856 5856 5856 5855 5855 5854 5853 5852 5852 5851 5849 5848 5846 5845 5843 5841 5839 5837 5834 5832 5829 5826 5823 5820 5817 5814 5810 5807 5804 5801 5798 5795 5793 5791 5789
5850 5850 5851 5851 5851 5851 5851 5851 5851 5851 5850 5850 5849 5848 5848 5847 5846 5845 5843 5842 5840 5839 5837 5835 5833 5830 5828 5825 5822 5819 5816 5813 5810 5806 5803 5799 5796 5793 5790 5788 5785 5783 5781
5845 5846 5846 5846 5846 5846 5846 5846 5845 5845 5845 5844 5843 5843 5842 5841 5840 5839 5837 5836 5834 5832 5830 5828 5825 5823 5820 5817 5814 5811 5808 5805 5802 5798 5794 5791 5788 5784 5781 5779 5776 5774 5771
5840 5840 5841 5841 5841 5840 5840 5840 5840 5839 5839 5838 5837 5836 5835 5835 5833 5832 5830 5829 5827 5825 5823 5820 5818 5815 5812 5809 5806 5803 5799 5796 5793 5789 5786 5783 5779 5776 5772 5769 5766 5764 5762
5834 5834 5835 5835 5835 5834 5834 5834 5834 5833 5832 5832 5831 5830 5829 5827 5826 5825 5823 5821 5819 5817 5815 5812 5809 5806 5803 5800 5797 5793 5790 5787 5783 5780 5777 5773 5769 5766 5762 5759 5756 5753 5751
5828 5828 5828 5828 5828 5828 5828 5828 5827 5826 5826 5825 5824 5823 5821 5820 5818 5817 5815 5813 5811 5809 5806 5803 5800 5797 5794 5790 5787 5783 5780 5776 5773 5770 5766 5763 5759 5755 5752 5748 5745 5742 5739
5821 5821 5822 5822 5821 5821 5821 5821 5820 5819 5818 5817 5816 5815 5814 5812 5810 5809 5807 5804 5802 5800 5797 5794 5791 5788 5784 5780 5777 5773 5770 5766 5763 5759 5755 5752 5748 5744 5740 5737 5733 5730 5727
5814 5814 5814 5814 5814 5814 5813 5813 5812 5811 5810 5809 5808 5807 5805 5804 5802 5800 5798 5795 5793 5790 5787 5784 5781 5778 5774 5770 5766 5762 5759 5755 5751 5748 5744 5740 5736 5732 5728 5725 5721 5717 5714
5806 5806 5806 5806 5806 5805 5805 5804 5803 5803 5802 5801 5799 5798 5796 5795 5793 5790 5788 5785 5783 5780 5777 5773 5770 5767 5763 5759 5755 5751 5747 5743 5739 5735 5732 5728 5724 5720 5716 5712 5708 5704 5701
5798 5798 5798 5797 5797 5796 5796 5795 5794 5793 5792 5791 5790 5788 5786 5785 5782 5780 5778 5775 5772 5769 5765 5762 5758 5754 5751 5747 5742 5738 5734 5730 5726 5722 5719 5714 5710 5706 5702 5698 5694 5690 5686